User: anonymous   Login
Location: Unspecified
(0.0000°N, 0.0000°E)
Time: 03:09:01
(UTC+00:00)
Language:

OBJECT E - Orbit

View from above orbital plane
View from above orbital plane
View from above satellite
View from above satellite

Ground track
Ground track

The orbit data is extracted from the following two-line orbital elements,

1 43196U 18015E   18113.82751214 -.00000022  00000-0  20057-5 0  9996
2 43196  97.3376 243.9150 0014994 350.0429  10.0386 15.23563500 12252
Epoch (UTC): 23 April 2018 19:51:37
Eccentricity: 0.0014994
inclination: 97.3376°
perigee height: 485 km
apogee height: 505 km
right ascension of ascending node: 243.9150°
argument of perigee: 350.0429°
revolutions per day: 15.23563500
mean anomaly at epoch: 10.0386°
orbit number at epoch: 1225

The dashed part of the orbit path shows where the satellite is in the earth's shadow,  

DLR